Choose a state:
Most recent flow and stage for Montana
(Stations highlighted in red are currently above flood stage)
USGS
station
ID
USGS station name NWS
flood
stage
(ft)
Most recent
stage
(ft)
Most recent
flow
(cfs)
Historical
peaks
(cfs)
Most recent
local
date/time
NWS
station
ID
05014300 Swiftcurrent Cr ab Swiftcurrent Lk at Many Glacier   0.85 Ssn 2,000 2017-12-16 23:30:00 SCLM8
05014500 Swiftcurrent Creek at Many Glacier MT   1.61 21.1 6,700 2017-12-16 23:30:00 MGGM8
05015500 Lake Sherburne at Sherburne MT   4760.01

 

  2017-12-16 23:00:00 SBUM8
05017500 St. Mary River near Babb MT   2.03 255 16,500 2017-12-16 23:15:00 SMYM8
05018000 St. Mary Canal at intake near Babb MT   2.21 Ssn   2017-12-16 23:15:00 SCIM8
05018500 St. Mary Canal at St. Mary Crossing near Babb MT   7.09 Ssn   2017-12-16 23:15:00 SCCM8
05020500 St. Mary River at International Boundary 7.5 3.72 Ice 40,000 2017-12-16 23:10:00 SMBM8
06006000 Red Rock Cr ab Lakes nr Lakeview MT   2.72 Ssn 293 2017-12-16 23:30:00 RRLM8
06012500 Red Rock R bl Lima Reservoir nr Monida MT   1.20 Ssn 2,500 2017-12-16 22:30:00 LRRM8
06016000 Beaverhead River at Barretts MT   0.89 Ssn 3,720 2017-11-01 01:00:00 BARM8
06017000 Beaverhead River at Dillon MT   3.81 Ssn 1,740 2017-11-01 07:15:00 DILM8
06018500 Beaverhead River near Twin Bridges MT 7 4.48 Ice 3,130 2017-12-16 23:15:00 TWNM8
06019500 Ruby River above reservoir near Alder, MT   2.91 Ice 3,810 2017-12-16 23:45:00 RRRM8
06020600 Ruby River below reservoir near Alder, MT   2.27 43.6 3,010 2017-12-16 23:45:00 RRBM8
06023000 Ruby River near Twin Bridges MT   2.48 Ssn 1,500 2017-11-01 11:45:00 RTBM8
06023100 Beaverhead River at Twin Bridges, MT   3.42 Ssn   2017-10-05 14:30:00 TWBM8
06023500 Big Hole River near Jackson MT   1.55 Ssn 938 2017-12-16 23:15:00 JKSM8
06023800 Big Hole River ab Spring Creek nr Jackson MT   2.03 Ssn 474 2017-12-17 00:00:00 SCRM8
06024020 Big Hole River at Miner Creek nr Jackson MT   1.45 Ssn 2,300 2017-12-16 23:15:00 MCKM8
06024450 Big Hole River bl Big Lake Cr at Wisdom MT   3.94 Ssn 4,300 2017-12-16 23:45:00 BGKM8
06024540 Big Hole River bl Mudd Cr nr Wisdom MT   3.47 Ssn 6,660 2017-12-16 23:30:00 BHDM8
06024580 Big Hole River near Wise River MT   4.56 Ssn 9,130 2017-12-16 23:30:00 WSVM8
06025250 Big Hole River at Maiden Rock nr Divide MT   3.11 Ssn 10,600 2017-12-16 23:45:00 MRDM8
06025500 Big Hole River near Melrose MT 6 1.83 Ice 23,000 2017-12-16 23:15:00 MLRM8
06026210 Big Hole River near Glen MT   2.61 Ssn 11,900 2017-11-01 01:00:00 GNLM8
06026420 Big Hole R bl Hamilton Ditch nr Twin Bridges, MT   1.55 Ssn 11,200 2017-11-01 00:45:00  
06026500 Jefferson River near Twin Bridges MT 10 4.06 Ice 16,500 2017-12-16 23:15:00 TWIM8
06027600 Jefferson River at Parsons Bdg nr Silver Star, MT   4.18 Ssn 13,600 2017-10-06 12:30:00 PBRM8
06033000 Boulder River near Boulder MT   5.08 Ice 7,000 2017-12-16 23:15:00  
06035000 Willow Creek near Harrison MT   3.04 Ssn 813 2017-12-16 23:15:00 WCHM8
06036650 Jefferson River near Three Forks MT 8 3.61 Ice 17,400 2017-12-16 23:00:00 TFKM8
06036805 Firehole River at Old Faithful, YNP   2.51 54.3 477 2017-12-17 00:00:00  
06036905 Firehole River near West Yellowstone MT   3.23 305 2,050 2017-12-16 23:00:00  
06036940 Tantalus Creek at Norris Junction, YNP   1.54 4.31 25 2017-12-16 23:30:00  
06037100 Gibbon River at Madison Jct, YNP   4.56 99.6 1,010 2017-12-16 23:00:00 GMJW4
06037500 Madison River near West Yellowstone MT   1.87 470 2,820 2017-12-16 23:30:00 MDSM8
06038500 Madison River bl Hebgen Lake nr Grayling MT   1.80 1,020 10,200 2017-12-16 23:45:00 HBDM8
06038800 Madison River at Kirby Ranch nr Cameron MT   1.98 1,060 5,030 2017-12-16 23:45:00 CMRM8
06040000 Madison River near Cameron MT   2.57 Ssn 8,830 2017-12-16 23:15:00 CMNM8
06040800 Madison River ab powerplant nr McAllister MT   4.08 287 5,940 2017-12-16 23:30:00 MRPM8
06041000 Madison River bl Ennis Lake nr McAllister MT   2.58 1,600 9,550 2017-12-16 23:45:00 MADM8
06043500 Gallatin River near Gallatin Gateway MT 6 1.39 366 9,160 2017-12-16 23:00:00 GLGM8
06048650 E Gallatin R ab Water Reclamation Fa nr Bozeman MT   3.62 Ice 499 2017-12-16 23:30:00  
06050000 Hyalite C at Hyalite R S nr Bozeman MT   2.78 Ice 956 2017-12-16 23:30:00  
06052500 Gallatin River at Logan MT 9 4.74 Ice 9,840 2017-12-16 23:00:00 LOGM8
06054500 Missouri River at Toston MT 10.5 3.93 Ice 34,000 2017-12-15 14:00:00 TOSM8
06061500 Prickly Pear Creek near Clancy MT   0.65 Ice 2,300 2017-12-16 23:30:00 PKPM8
06062500 Tenmile Creek near Rimini MT   1.63 Ice 3,290 2017-12-16 23:45:00 RIMM8
06063000 Tenmile Creek near Helena MT 4.5 2.29 Ice 3,770 2017-12-16 23:15:00 TMHM8
06065500 Missouri River bl Hauser Dam near Helena MT   4.15 4,580 33,300 2017-12-16 14:00:00 HASM8
06066500 Missouri River bl Holter Dam nr Wolf Cr MT   3.69 4,380 34,800 2017-12-16 23:45:00 HTRM8
06071300 Little Prickly Pear Cr at Wolf Cr MT  

 

43.0 4,500 2008-09-30 23:45:00 LPPM8
06073500 Dearborn River near Craig MT 6.5 3.23 99.9 15,400 2017-12-16 23:15:00 DBRM8
06074000 Missouri River at Cascade MT  

 

4,490 54,250 2017-12-16 23:30:00  
06076690 Smith River near Ft Logan MT   3.23 Ice 4,600 2017-12-16 23:30:00 SFLM8
06077200 Smith River bl Eagle Cr nr Fort Logan MT   3.96 Ice 4,030 2017-12-16 23:15:00 SMHM8
06078200 Missouri River near Ulm MT 13.5 4.23 4,980 35,000 2017-12-16 23:00:00 ULMM8
06078500 North Fork Sun River near Augusta MT   3.39 Ice 51,100 2017-12-16 23:30:00 NFSM8
06079000 South Fork Sun River near Augusta MT   1.29 Ice 4,370 2017-12-16 23:15:00 SSNM8
06080900 Sun River bl Diversion Dam nr Augusta MT   4.07 Ssn 59,700 2017-12-16 23:45:00  
06082200 Sun River bl Willow Cr nr Augusta MT   2.17 Ice 46,700 2017-12-16 23:15:00  
06085800 Sun River at Simms MT 7.5 2.45 294 50,000 2017-12-16 23:30:00 SSRM8
06088500 Muddy Creek at Vaughn MT 12 2.81 Ice 7,600 2017-12-16 23:30:00 MDYM8
06089000 Sun River near Vaughn MT 6 2.53 Ice 53,500 2017-12-16 23:00:00 VAUM8
06090000 Missouri River at Great Falls MT   10.37

 

  2017-12-16 23:30:00  
06090300 Missouri River near Great Falls MT   3.39 5,950 72,000 2017-12-16 23:45:00 GFLM8
06090500 Belt Creek near Monarch MT 6.5 1.95 15.7 11,000 2017-12-16 23:15:00 BTCM8
06090800 Missouri River at Fort Benton MT 13.5 2.51 5,990 140,000 2017-12-16 23:30:00 FBNM8
06091700 Two Medicine River bl South Fork nr Browning MT   1.71 Ice 11,700 2017-12-16 23:15:00 TMRM8
06093200 Badger Cr bl Four Horns Canal nr Browning MT 7 4.39 122 20,700 2017-12-16 23:15:00 BDCM8
06099000 Cut Bank Creek at Cut Bank MT   2.59 Ice 16,600 2017-12-16 23:30:00  
06099500 Marias River near Shelby MT 9 3.39 484 241,000 2017-12-16 23:30:00 SHLM8
06101500 Marias River near Chester MT   3.50 499 10,400 2017-12-16 23:15:00 MRCM8
06102050 Marias River near Loma MT   1.34 Ssn 10,800 2017-12-16 22:00:00 LOMM8
06102500 Teton River bl South Fork nr Choteau MT   3.73 Ice 54,600 2017-12-16 23:45:00 TSFM8
06108000 Teton River near Dutton MT 9 1.77 Ice 71,300 2017-12-16 23:30:00 DTTM8
06108800 Teton River at Loma MT   2.01 Ice 3,910 2017-12-16 23:30:00 LTRM8
06109500 Missouri River at Virgelle MT 17 3.54 6,290 122,000 2017-12-16 23:00:00 VRGM8
06110020 Judith River above Carr Creek near Utica MT   2.38 8.80 542 2017-12-16 23:30:00  
06114700 Judith River nr mouth, nr Winifred MT   5.19 Ssn 15,300 2017-12-16 23:15:00 JDRM8
06115200 Missouri River near Landusky MT 25 14.50 6,990 137,000 2017-12-16 23:00:00 LDKM8
06118500 South Fork Musselshell R ab Martinsdale MT   3.56 22.8 5,240 2017-12-16 23:30:00  
06119600 Musselshell River nr Martinsdale, MT   1.80 Ssn 4,780 2017-12-16 23:15:00 MRMM8
06120500 Musselshell River at Harlowton MT 7 2.90 Ice 7,270 2017-12-17 00:00:00 HLWM8
06123030 Musselshell River ab Mud Cr nr Shawmut MT 6.5 2.33 Ssn 8,900 2017-12-16 23:30:00 SHAM8
06125600 Musselshell River ab Big Coulee Creek at Lavina MT 8.5 1.49 Ssn 4,890 2017-12-16 23:30:00 LVNM8
06126500 Musselshell River near Roundup MT 10 1.05 Ice 15,000 2017-12-16 23:00:00 RUPM8
06127500 Musselshell River at Musselshell MT 11 2.65 Ssn 16,200 2017-12-16 23:30:00 MUSM8
06130500 Musselshell River at Mosby MT 10 1.43 Ice 25,100 2017-12-16 23:45:00 MSBM8
06131200 Nelson Creek near Van Norman MT   1.69 Ice 1,750 2017-12-16 23:15:00  
06132000 Missouri River below Fort Peck Dam MT   2.70

 

65,900 2017-12-16 23:15:00  
06133500 N F Milk River ab St. Mary canal nr Browning MT   6.94 Ssn 3,090 2017-12-16 23:15:00 NFMM8
06134000 North Milk River near international boundary  

 

542 3,670 2003-05-24 23:45:00  
06135000 Milk River at Eastern Crossing of Int Bndry 9.5 2.66 Ssn 14,400 2017-12-16 23:15:00 ERNM8
06139500 Big Sandy Creek near Havre MT 8.5 2.26 Ssn 6,000 2017-12-16 23:30:00 BSMM8
06140500 Milk River at Havre MT 10 0.85 60.1 20,000 2017-12-16 23:15:00 HVRM8
06142400 Clear Creek near Chinook MT 5.5 3.87 Ssn 1,490 2017-12-16 23:30:00 CCMM8
06151500 Battle Creek near Chinook MT 10 1.40 Ssn 19,400 2017-12-16 23:30:00 BCMM8
06154100 Milk River near Harlem MT 21 2.31 Ssn 19,000 2017-12-16 23:30:00 HRLM8
06154400 Peoples Creek near Hays MT   2.76 0.60 8,460 2017-12-16 23:15:00 PEOM8
06155030 Milk River near Dodson MT 23 5.54 Ssn 13,200 2017-12-16 23:15:00 DMRM8
06155500 Milk River at Malta MT 16 1.67 Ice 24,000 2017-12-16 23:45:00 MALM8
06155900 Milk River at Cree Crossing nr Saco MT  

 

28.0 3,800 2008-09-30 23:45:00  
06164000 Frenchman River at international boundary   1.263 Ssn 22,700 2017-12-16 23:25:00  
06164510 Milk River at Juneberg Bridge nr Saco MT 20 3.13 161 12,400 2017-12-16 23:00:00 SACM8
06166000 Beaver Cr bl Guston Coulee nr Saco MT 11

 

Ssn 23,500 2017-12-12 22:45:00 GSCM8
06167500 Beaver Creek near Hinsdale MT 14 4.26 Ssn 8,210 2017-12-16 23:30:00 BCHM8
06169500 Rock Creek bl Horse Creek nr int'l boundary   2.48 Ice 5,110 2017-12-16 23:30:00 ORHM8
06172310 Milk River at Tampico MT 23 2.61 Ssn 19,700 2017-12-16 23:30:00 TMPM8
06174500 Milk River at Nashua MT 20 2.02 168 45,300 2017-12-16 23:00:00 NSHM8
06175100 Missouri R at W Frazer Pump Plant nr Frazer MT   8.25

 

  2017-12-16 23:00:00  
06175510 Missouri R at E Frazer Pump Plant nr Frazer MT   42.13

 

  2017-12-16 23:30:00  
06177000 Missouri River near Wolf Point MT 23 11.24 7,930 93,200 2017-12-16 23:00:00 WPTM8
06177500 Redwater River at Circle MT 11 3.43 Ice 6,960 2017-12-16 23:30:00 RRCM8
06178000 Poplar River at international boundary 6 2.43 Ssn 12,700 2017-12-16 23:15:00 PPRM8
06178500 East Poplar River at international boundary 10 5.29 Ice 4,020 2017-12-16 23:30:00 EPRM8
06181000 Poplar River near Poplar MT 15.5 1.65 Ice 40,000 2017-12-03 19:15:00 PLRM8
06183450 Big Muddy Creek near Antelope MT 12 2.09 Ice 3,190 2017-12-16 23:15:00 BGCM8
06185110 Big Muddy Creek nr mouth nr Culbertson MT 16 4.63 Ice 1,860 2017-12-16 23:15:00 CBMM8
06185500 Missouri River near Culbertson MT 19 3.36 8,050 104,000 2017-12-16 23:00:00 CLBM8
06186500 Yellowstone River at Yellowstone Lk Outlet YNP 9 3.19 718 9,950 2017-12-16 23:30:00 YLOW4
06187915 Soda Butte Cr at Park Bndry at Silver Gate   0.37 Ice 1,250 2017-12-16 23:45:00 SBCM8
06188000 Lamar River nr Tower Ranger Station YNP 15 2.79 Ice 19,500 2017-12-16 23:15:00 TFLW4
06190540 Boiling River at Mammoth,YNP   1.04 20.8 36 2017-12-16 23:15:00  
06191000 Gardner River near Mammoth YNP   2.19 128 2,110 2017-12-16 23:45:00 GDRM8
06191500 Yellowstone River at Corwin Springs MT 11 1.79 1,440 32,200 2017-12-16 23:00:00 CORM8
06192500 Yellowstone River near Livingston MT 9.5 2.07 1,990 40,600 2017-12-16 23:45:00 LIVM8
06195600 Shields River nr Livingston MT 5.5 1.39 160 5,600 2017-12-16 23:30:00 SLDM8
06200000 Boulder River at Big Timber MT 7 2.42 205 9,940 2017-12-16 23:45:00 BTMM8
06204050 West Rosebud Creek near Roscoe MT   0.50 30.3 1,630 2017-12-17 00:00:00 WRDM8
06204070 W Rosebud Cr at Emerald Lk Campground nr Roscoe   1.81 107 1,390 2017-12-16 23:30:00 WREM8
06205000 Stillwater River near Absarokee MT 6.5 2.07 480 12,000 2017-12-16 23:15:00 SRAM8
06207500 Clarks Fork Yellowstone River nr Belfry MT 8 1.60 444 14,800 2017-12-17 00:00:00 BFYM8
06208500 Clarks Fork Yellowstone River at Edgar MT 8.5 2.24 617 11,100 2017-12-16 23:30:00 EDGM8
06209500 Rock Creek near Red Lodge MT   4.82 Ice 3,110 2017-12-17 00:00:00 ROKM8
06211000 Red Lodge Cr ab Cooney Re nr Boyd MT   2.00 Ssn 4,700 2017-12-16 23:15:00 BYDM8
06211500 Willow Creek near Boyd MT   2.78 Ssn 2,110 2017-12-16 23:30:00 BOYM8
06214500 Yellowstone River at Billings MT 13.5 3.17 3,840 82,000 2017-12-16 23:00:00 BILM8
06217700 North Fork Crooked Cr trib nr Shepherd MT  

 

10.0 5,120 2003-09-30 23:55:00  
06287000 Bighorn River near St. Xavier, MT   60.77 3,710 37,400 2017-12-16 23:00:00 STXM8
06287800 Bighorn River at bridge, at St. Xavier, MT   7.15 3,660 14,700 2017-12-16 23:30:00  
06288400 Bighorn River at Two Leggins Bridge, near Hardin   11.00 3,720 15,100 2017-12-16 23:30:00  
06289000 Little Bighorn River at State Line nr Wyola MT   2.27 74.3 2,730 2017-12-17 00:00:00 LBSM8
06294000 Little Bighorn River near Hardin MT 8 2.66 Ice 22,600 2017-12-16 23:15:00 HRDM8
06294500 Bighorn River ab Tullock Cr nr Bighorn MT   2.65 3,960 33,200 2017-12-16 23:00:00 BGHM8
06295000 Yellowstone River at Forsyth MT 14 2.62 8,470 109,800 2017-12-16 23:45:00 FRYM8
06295113 Rosebud C at Reservation Bndry nr Kirby MT   2.67 Ice 1,720 2017-12-16 23:45:00 RCRM8
06295220 Rosebud C Bel Lame Deer C nr Lame Deer MT   5.09 Bkw 9,350 2017-12-16 23:45:00  
06306300 Tongue River at State Line nr Decker MT   2.60 Ice 17,500 2017-12-16 23:30:00 DSLM8
06307500 Tongue River at Tongue R Dam nr Decker MT   10.92 174 10,800 2017-12-16 23:30:00 DKRM8
06307616 Tongue R at Birney Day School Br nr Birney MT 7 1.29 193 5,340 2017-12-16 23:30:00 BNYM8
06307830 Tongue R bl Brandenberg bridge nr Ashland MT   2.88 Ice 8,340 2017-12-16 23:15:00  
06308400 Pumpkin Creek near Miles City MT 13 1.74 0.00 7,900 2017-12-16 23:45:00 PMKM8
06308500 Tongue River at Miles City MT 10 2.58 Ice 15,300 2017-12-16 23:00:00 MICM8
06309000 Yellowstone River at Miles City MT 13 3.93 8,490 102,000 2017-12-16 23:00:00 MILM8
06324500 Powder River at Moorhead MT   3.26 314 100,000 2017-12-16 23:45:00 MHDM8
06326500 Powder River near Locate MT   1.22 Ice 31,000 2017-12-16 23:00:00 LOCM8
06327450 Cains Coulee at Glendive MT  

 

4.60 1,770 2004-09-30 23:55:00  
06327500 Yellowstone River at Glendive MT 53.5 43.77 8,670 125,000 2017-12-16 23:00:00 GLNM8
06329500 Yellowstone River near Sidney MT 19 4.97 8,970 159,000 2017-12-16 23:00:00 SIDM8
12301250 Tobacco River at Eureka, MT   2.64 102 1,940 2017-12-16 23:30:00  
12301933 Kootenai River bl Libby Dam nr Libby MT 27.5 22.05 17,100 54,000 2017-12-16 23:00:00 KBDM8
12302055 Fisher River near Libby MT 7.5 3.21 164 12,000 2017-12-16 23:45:00 FISM8
12304500 Yaak River near Troy MT 8 3.26 192 13,400 2017-12-16 23:45:00 TRYM8
12323240 Blacktail Creek at Butte MT 4.3 0.85 9.50 303 2017-12-16 23:45:00 BKTM8
12323250 Silver Bow Cr bl Blacktail Cr at Butte MT   1.59 19.2 447 2017-12-16 23:45:00  
12323600 Silver Bow Creek at Opportunity MT   2.35 Ice 1,300 2017-12-16 23:45:00  
12323670 Mill Creek nr Anaconda, MT   2.18 Ice 432 2017-12-16 23:00:00  
12323700 Mill Creek at Opportunity, MT   2.11 Ice 284 2017-12-16 23:30:00  
12323710 Willow Creek nr Anaconda, MT   2.03 Ice 165 2017-12-16 23:00:00  
12323720 Willow Creek at Opportunity, MT   4.00 4.30 202 2017-12-16 23:30:00  
12323750 Silver Bow Creek at Warm Springs MT   2.05 52.7 1,320 2017-12-16 23:30:00  
12323760 Warm Springs Creek near Anaconda MT 4.4 2.00 53.0 930 2017-12-16 23:30:00 ANDM8
12323770 Warm Springs Creek at Warm Springs MT   2.91 Ice 828 2017-12-16 23:45:00  
12323800 Clark Fork near Galen MT   2.10 94.8 1,410 2017-12-16 23:30:00  
12323840 Lost Creek near Anaconda MT   2.62 Ice 101 2017-12-16 23:00:00  
12323850 Lost Creek near Galen, MT   1.95 44.8 164 2017-12-16 23:30:00  
12324200 Clark Fork at Deer Lodge MT 6 2.88 216 2,500 2017-12-16 23:30:00 DLGM8
12324400 Clark Fork ab Little Blackfoot R nr Garrison MT   3.36 Ice 2,690 2017-12-16 23:45:00  
12324590 Little Blackfoot River near Garrison MT   1.62 Ice 8,650 2017-12-15 03:30:00  
12324680 Clark Fork at Goldcreek MT   4.53 Ice 12,000 2017-12-17 00:00:00  
12325000 Georgetown Lake near Philipsburg, MT   6428.49

 

  2017-12-16 23:15:00  
12325500 Flint Creek near Southern Cross MT   0.79 Ssn 192 2017-12-16 23:45:00  
12329500 Flint Creek at Maxville MT   2.15 Ice 1,680 2017-12-16 23:45:00  
12330000 Boulder Creek at Maxville MT   1.40 Ice 1,580 2017-12-16 23:30:00  
12331500 Flint Creek near Drummond MT   2.57 Ice 1,460 2017-12-16 23:30:00  
12331800 Clark Fork near Drummond MT 8 3.01 550 9,800 2017-12-16 23:15:00 DRMM8
12332000 Middle Fork Rock Cr nr Philipsburg MT   3.36 Ice 1,680 2017-12-16 23:15:00  
12334510 Rock Creek near Clinton MT 9 5.12 Ice 6,500 2017-12-16 23:45:00 RCCM8
12334550 Clark Fork at Turah Bridge nr Bonner MT   3.92 938 13,300 2017-12-16 23:30:00  
12335100 Blackfoot R ab Nevada Cr nr Helmville MT   3.85 185 4,860 2017-10-17 13:45:00  
12335500 Nevada Cr ab reservoir, nr Helmville, MT   1.97 Ice 1,800 2017-12-16 23:45:00  
12340000 Blackfoot River near Bonner MT 10 2.31 Ice 19,200 2017-12-16 23:45:00 BONM8
12340500 Clark Fork above Missoula MT 10 2.82 Ice 48,000 2017-12-17 00:00:00 ABOM8
12342500 West Fork Bitterroot River nr Conner MT   1.34 88.0 4,060 2017-12-16 23:15:00 WFBM8
12344000 Bitterroot River near Darby MT 7.5 1.58 324 11,500 2017-12-16 23:15:00 DARM8
12350250 Bitterroot River at Bell Crossing nr Victor MT 11 4.75 Ssn 18,700 2017-12-16 23:45:00 VICM8
12352500 Bitterroot River near Missoula MT 11 3.63 1,220 38,300 2017-12-16 23:45:00 BITM8
12353000 Clark Fork below Missoula MT 11 1.87 2,950 55,100 2017-12-17 00:00:00 BELM8
12354000 St. Regis River near St. Regis, MT 8 2.28 205 29,000 2017-12-16 23:45:00 STRM8
12354500 Clark Fork at St. Regis MT 19 6.00 3,890 68,900 2017-12-16 23:45:00 SRGM8
12355000 Flathead River at Flathead British Columbia 10.5 4.73 374 16,300 2017-12-16 23:30:00 NFFQ2
12355500 N F Flathead River nr Columbia Falls MT 13 2.19 928 69,100 2017-12-16 23:45:00 FCFM8
12357800 Snyder Creek nr mouth, nr West Glacier, MT   2.98

 

  2017-12-16 23:40:00  
12358500 M F Flathead River near West Glacier MT 10 2.25 965 140,000 2017-12-16 23:45:00 WGCM8
12359800 S F Flathead R ab Twin C nr Hungry Horse MT   2.17 Ssn 50,900 2017-12-16 23:45:00 TNCM8
12362000 Hungry Horse Reservoir nr Hungry Horse MT   3542.37

 

  2017-12-16 23:45:00  
12362500 S F Flathead River nr Columbia Falls MT   5.01 1,590 46,200 2017-12-16 23:45:00  
12363000 Flathead River at Columbia Falls MT 13 3.36 3,830 176,000 2017-12-16 23:45:00 CFMM8
12366500 Flathead River at Foys Bend nr Kalispell MT   92.51

 

  2017-12-16 23:45:00  
12370000 Swan River near Bigfork, MT 6.5 2.54 574 8,890 2017-12-16 23:00:00 SWRM8
12371550 Flathead Lake at Polson MT   2889.71

 

  2017-12-16 23:30:00 KERM8
12372000 Flathead River near Polson MT 18 6.88 11,300 110,000 2017-12-16 23:30:00 FPOM8
12374250 Mill Cr ab Bassoo Cr nr Niarada MT   1.33 Ice 283 2017-12-16 23:15:00  
12375900 South Crow Creek near Ronan MT   2.01 8.41 608 2017-12-16 23:15:00  
12377150 Mission Creek ab reservoir nr St. Ignatius MT   1.49 19.0 706 2017-12-16 23:15:00  
12381400 South Fork Jocko River near Arlee MT   2.63 Ice 1,220 2017-12-16 23:15:00  
12388700 Flathead River at Perma MT   9.71 10,500 54,900 2017-12-15 03:30:00 PERM8
12389000 Clark Fork near Plains MT 16 5.47 14,700 134,000 2017-12-16 23:45:00 PLNM8
12389500 Thompson River near Thompson Falls MT 7 2.87 203 6,190 2017-12-16 23:45:00 THRM8
12390700 Prospect Creek at Thompson Falls MT 7.5 6.79 2,520 5,490 2017-12-16 23:15:00 PRCM8
480608115242901 Libby Wetland Site bl Schrieber Lake nr Libby, MT   0.63 Ice 34 2017-12-16 23:30:00